This demonstration page uses our WeatherBlox Daily Observations layout. Learn more.

40.92945, -100.16068

Hourly Observations for July 24, 2015

Temp ( °F °C ) Dew Point ( °F °C ) Humidity (%) Winds ( mph kmh ) Pressure ( in mb ) Visibility ( mi km ) Precip ( " mm )
12:15 am 00:15 Clear 79 26.2 65 18.5 63 63 S 15 24 29.77 1008 10 16.0934 N/A
12:35 am 00:35 Clear 78 25.6 65 18.4 65 65 S 9 15 29.77 1008 10 16.0934 N/A
12:55 am 00:55 Clear 75 24.1 65 18.2 70 70 S 8 13 29.8 1009 10 16.0934 N/A
1:15 am 01:15 Clear 77 25.1 65 18.4 66 66 S 9 15 29.8 1009 10 16.0934 N/A
1:35 am 01:35 Clear 77 25 67 19.2 70 70 S 12 19 29.8 1009 10 16.0934 N/A
1:55 am 01:55 Clear 76 24.6 66 18.7 70 70 S 9 15 29.8 1009 10 16.0934 N/A
2:15 am 02:15 Clear 76 24.5 64 17.8 66 66 S 9 15 29.8 1009 10 16.0934 N/A
2:35 am 02:35 Clear 76 24.6 60 15.7 58 58 SSW 6 9 29.8 1009 10 16.0934 N/A
2:55 am 02:55 Clear 77 25 60 15.4 55 55 Calm 29.8 1009 10 16.0934 N/A
3:15 am 03:15 Clear 74 23.2 60 15.3 61 61 SSW 3 6 29.8 1009 10 16.0934 N/A
3:35 am 03:35 Clear 73 22.6 60 15.3 64 64 Calm 29.8 1009 10 16.0934 N/A
3:55 am 03:55 Clear 75 24 58 14.5 55 55 Calm 29.8 1009 10 16.0934 N/A
4:15 am 04:15 Clear 74 23.4 60 15.5 61 61 SW 5 7 29.8 1009 10 16.0934 N/A
4:35 am 04:35 Clear 73 22.9 61 16.3 66 66 SW 6 9 29.8 1009 10 16.0934 N/A
4:55 am 04:55 Clear 73 22.9 62 16.6 68 68 SW 6 9 29.8 1009 10 16.0934 N/A
5:15 am 05:15 Clear 74 23.1 62 16.7 67 67 SW 6 9 29.8 1009 10 16.0934 N/A
5:35 am 05:35 Clear 69 20.7 62 16.8 78 78 N 3 6 29.85 1011 10 16.0934 N/A
5:55 am 05:55 Clear 70 21.3 63 17 77 77 Calm 29.85 1011 10 16.0934 N/A
6:15 am 06:15 Clear 69 20.8 63 17.1 79 79 Calm 29.85 1011 10 16.0934 N/A
6:35 am 06:35 Sunny 68 20 63 17.2 84 84 Calm 29.85 1011 10 16.0934 N/A
6:55 am 06:55 Sunny 67 19.4 63 17.1 87 87 WNW 3 6 29.88 1012 10 16.0934 N/A
7:15 am 07:15 Sunny 69 20.6 65 18.2 86 86 WSW 5 7 29.85 1011 10 16.0934 N/A
7:35 am 07:35 Sunny 73 22.6 65 18.6 78 78 WNW 3 6 29.83 1010 10 16.0934 N/A
7:55 am 07:55 Sunny 75 23.7 66 18.8 74 74 Calm 29.83 1010 10 16.0934 N/A
8:15 am 08:15 Sunny 76 24.2 66 19.1 73 73 Calm 29.83 1010 10 16.0934 N/A
8:35 am 08:35 Sunny 77 24.8 67 19.7 73 73 W 5 7 29.85 1011 10 16.0934 N/A
8:55 am 08:55 Sunny 79 25.9 69 20.3 71 71 NNW 7 11 29.85 1011 10 16.0934 N/A
9:15 am 09:15 Sunny 80 26.5 70 20.9 71 71 NNW 6 9 29.83 1010 10 16.0934 N/A
9:35 am 09:35 Sunny 82 27.5 70 21.2 69 69 NW 5 7 29.83 1010 10 16.0934 N/A
9:55 am 09:55 Sunny 82 28 70 21.2 67 67 NNW 5 7 29.83 1010 10 16.0934 N/A
10:15 am 10:15 Sunny 84 29.1 71 21.4 63 63 ENE 3 6 29.83 1010 10 16.0934 N/A
10:35 am 10:35 Sunny 86 30.1 71 21.5 60 60 E 8 13 29.83 1010 10 16.0934 N/A
10:55 am 10:55 Sunny 86 29.9 70 21.3 60 60 ENE 6 9 29.83 1010 10 16.0934 N/A
11:15 am 11:15 Sunny 87 30.3 70 21.2 58 58 NE 6 9 29.85 1011 10 16.0934 N/A
11:35 am 11:35 Sunny 87 30.8 71 21.5 58 58 ESE 6 9 29.83 1010 10 16.0934 N/A
11:55 am 11:55 Sunny 88 31.2 70 21.3 56 56 ESE 5 7 29.83 1010 10 16.0934 N/A
12:15 pm 12:15 Sunny 88 31.1 71 21.5 57 57 E 7 11 29.83 1010 10 16.0934 N/A
12:35 pm 12:35 Sunny 90 32 71 21.7 54 54 NE 7 11 29.83 1010 10 16.0934 N/A
12:55 pm 12:55 Sunny 90 32.4 70 21.2 52 52 NNE 6 9 29.8 1009 10 16.0934 N/A
1:15 pm 13:15 Sunny 91 32.9 70 21.3 50 50 E 5 7 29.8 1009 10 16.0934 N/A
1:35 pm 13:35 Sunny 91 32.6 70 20.9 50 50 Calm 29.83 1010 10 16.0934 N/A
1:55 pm 13:55 Sunny 91 32.8 70 21.2 50 50 NNW 7 11 29.83 1010 10 16.0934 N/A
2:15 pm 14:15 Sunny 89 31.8 73 23 60 60 NNW 14 22 29.83 1010 10 16.0934 N/A
2:35 pm 14:35 Sunny with Nearby Thunderstorms 87 30.3 74 23.2 66 66 N 10 17 29.83 1010 10 16.0934 N/A
2:55 pm 14:55 Sunny 87 30.3 72 22.4 63 63 NNE 16 26 29.83 1010 10 16.0934 N/A
3:15 pm 15:15 Sunny 85 29.4 70 21 61 61 NNE 6 9 29.85 1011 10 16.0934 N/A
3:35 pm 15:35 Sunny with Light Rain 85 29.5 67 19.6 55 55 NE 6 9 29.85 1011 10 16.0934 N/A
3:55 pm 15:55 Sunny 89 31.7 69 20.4 51 51 NNW 10 17 29.83 1010 10 16.0934 N/A
4:15 pm 16:15 Sunny 89 31.4 69 20.6 53 53 NE 5 7 29.83 1010 10 16.0934 N/A
4:35 pm 16:35 Sunny 91 32.6 67 19.2 45 45 NE 8 13 29.8 1009 10 16.0934 N/A
4:55 pm 16:55 Sunny 92 33.1 66 18.8 43 43 E 12 19 29.8 1009 10 16.0934 N/A
5:15 pm 17:15 Sunny 92 33.1 63 17.1 38 38 E 10 17 29.8 1009 10 16.0934 N/A
5:35 pm 17:35 Sunny 91 32.8 61 16 36 36 E 10 17 29.8 1009 10 16.0934 N/A
5:55 pm 17:55 Sunny 91 32.6 64 17.9 42 42 E 7 11 29.77 1008 10 16.0934 N/A
6:15 pm 18:15 Sunny 90 32.1 65 18.1 43 43 E 8 13 29.77 1008 10 16.0934 N/A
6:35 pm 18:35 Sunny 89 31.5 65 18.6 46 46 E 8 13 29.77 1008 10 16.0934 N/A
6:55 pm 18:55 Sunny 88 31 64 17.7 45 45 E 8 13 29.77 1008 10 16.0934 N/A
7:15 pm 19:15 Partly Cloudy 87 30.4 64 17.5 46 46 E 10 17 29.74 1007 10 16.0934 N/A
7:35 pm 19:35 Sunny 82 28 67 19.3 59 59 ESE 9 15 29.77 1008 10 16.0934 N/A
7:55 pm 19:55 Windy with Storms Likely 81 27 66 19.1 62 62 NW 24 39 29.8 1009 10 16.0934 N/A
8:15 pm 20:15 Cloudy 75 24 65 18.3 71 71 NNW 9 15 29.85 1011 10 16.0934 N/A
8:35 pm 20:35 Cloudy 73 22.9 65 18.6 77 77 N 20 31 29.91 1013 10 16.0934 N/A
8:55 pm 20:55 Cloudy with Heavy Thunderstorms 71 21.6 66 18.7 84 84 NW 20 31 29.94 1014 10 16.0934 0.04 1.016
9:15 pm 21:15 Cloudy with Light Thunderstorms 71 21.5 66 18.8 85 85 NNE 17 28 29.94 1014 4 6.43736 0.29 7.366
9:35 pm 21:35 Cloudy with Nearby Thunderstorms 72 22.3 67 19.4 84 84 NNW 7 11 29.94 1014 10 16.0934 0.3 7.62
9:55 pm 21:55 Cloudy with Heavy Thunderstorms 71 21.8 66 19.1 85 85 ENE 13 20 29.94 1014 10 16.0934 0.34 8.636
10:15 pm 22:15 Cloudy with Light Rain 71 21.8 67 19.2 85 85 ESE 17 28 29.91 1013 7 11.26538 0.07 1.778
10:35 pm 22:35 Partly Cloudy with Light Rain 71 21.8 67 19.2 85 85 ESE 13 20 29.94 1014 10 16.0934 0.07 1.778
10:55 pm 22:55 Clear 71 21.5 67 19.5 88 88 SE 10 17 29.91 1013 10 16.0934 0.07 1.778
11:15 pm 23:15 Clear 71 21.7 66 19.1 85 85 SSE 8 13 29.94 1014 10 16.0934 N/A
11:35 pm 23:35 Clear 71 21.6 67 19.5 88 88 SE 9 15 29.94 1014 10 16.0934 N/A
11:55 pm 23:55 Clear 71 21.7 67 19.5 87 87 SSE 9 15 29.91 1013 10 16.0934 N/A

Powered by AerisWeather